Year,Month,Day,Hour,Minute,Value (Times are PST for temperature in C)
2014,10,13,00,00,11.60
2014,10,13,00,01,11.60
2014,10,13,00,02,11.60
2014,10,13,00,03,11.60
2014,10,13,00,04,11.60
2014,10,13,00,05,11.60
2014,10,13,00,06,11.60
2014,10,13,00,07,11.60
2014,10,13,00,08,11.60
2014,10,13,00,09,11.60
2014,10,13,00,10,11.70
2014,10,13,00,11,11.70
2014,10,13,00,12,11.70
2014,10,13,00,13,11.70
2014,10,13,00,14,11.70
2014,10,13,00,15,11.70
2014,10,13,00,16,11.70
2014,10,13,00,17,11.70
2014,10,13,00,18,11.60
2014,10,13,00,19,11.60
2014,10,13,00,20,11.60
2014,10,13,00,21,11.60
2014,10,13,00,22,11.60
2014,10,13,00,23,11.60
2014,10,13,00,24,11.60
2014,10,13,00,25,11.60
2014,10,13,00,26,11.50
2014,10,13,00,27,11.50
2014,10,13,00,28,11.50
2014,10,13,00,29,11.50
2014,10,13,00,30,11.50
2014,10,13,00,31,11.50
2014,10,13,00,32,11.60
2014,10,13,00,33,11.60
2014,10,13,00,34,11.60
2014,10,13,00,35,11.60
2014,10,13,00,36,11.60
2014,10,13,00,37,11.60
2014,10,13,00,38,11.70
2014,10,13,00,39,11.60
2014,10,13,00,40,11.70
2014,10,13,00,41,11.70
2014,10,13,00,42,11.70
2014,10,13,00,43,11.70
2014,10,13,00,44,11.70
2014,10,13,00,45,11.70
2014,10,13,00,46,11.70
2014,10,13,00,47,11.70
2014,10,13,00,48,11.60
2014,10,13,00,49,11.60
2014,10,13,00,50,11.60
2014,10,13,00,51,11.60
2014,10,13,00,52,11.60
2014,10,13,00,53,11.60
2014,10,13,00,54,11.60
2014,10,13,00,55,11.60
2014,10,13,00,56,11.60
2014,10,13,00,57,11.60
2014,10,13,00,58,11.60
2014,10,13,00,59,11.60
2014,10,13,01,00,11.60
2014,10,13,01,01,11.60
2014,10,13,01,02,11.60
2014,10,13,01,03,11.60
2014,10,13,01,04,11.60
2014,10,13,01,05,11.60
2014,10,13,01,06,11.50
2014,10,13,01,07,11.50
2014,10,13,01,08,11.50
2014,10,13,01,09,11.40
2014,10,13,01,10,11.40
2014,10,13,01,11,11.40
2014,10,13,01,12,11.40
2014,10,13,01,13,11.40
2014,10,13,01,14,11.40
2014,10,13,01,15,11.40
2014,10,13,01,16,11.30
2014,10,13,01,17,11.30
2014,10,13,01,18,11.30
2014,10,13,01,19,11.30
2014,10,13,01,20,11.30
2014,10,13,01,21,11.30
2014,10,13,01,22,11.30
2014,10,13,01,23,11.30
2014,10,13,01,24,11.30
2014,10,13,01,25,11.20
2014,10,13,01,26,11.20
2014,10,13,01,27,11.20
2014,10,13,01,28,11.20
2014,10,13,01,29,11.20
2014,10,13,01,30,11.20
2014,10,13,01,31,11.30
2014,10,13,01,32,11.20
2014,10,13,01,33,11.20
2014,10,13,01,34,11.20
2014,10,13,01,35,11.20
2014,10,13,01,36,11.20
2014,10,13,01,37,11.10
2014,10,13,01,38,11.10
2014,10,13,01,39,11.10
2014,10,13,01,40,11.10
2014,10,13,01,41,11.00
2014,10,13,01,42,11.10
2014,10,13,01,43,11.00
2014,10,13,01,44,11.00
2014,10,13,01,45,11.00
2014,10,13,01,46,11.00
2014,10,13,01,47,11.00
2014,10,13,01,48,11.00
2014,10,13,01,49,10.90
2014,10,13,01,50,10.90
2014,10,13,01,51,10.90
2014,10,13,01,52,10.90
2014,10,13,01,53,10.90
2014,10,13,01,54,10.90
2014,10,13,01,55,10.90
2014,10,13,01,56,10.90
2014,10,13,01,57,10.90
2014,10,13,01,58,10.90
2014,10,13,01,59,10.90
2014,10,13,02,00,10.90
2014,10,13,02,01,10.90
2014,10,13,02,02,10.90
2014,10,13,02,03,10.90
2014,10,13,02,04,10.90
2014,10,13,02,05,10.90
2014,10,13,02,06,10.90
2014,10,13,02,07,10.90
2014,10,13,02,08,10.90
2014,10,13,02,09,11.00
2014,10,13,02,10,11.00
2014,10,13,02,11,11.00
2014,10,13,02,12,11.10
2014,10,13,02,13,11.10
2014,10,13,02,14,11.10
2014,10,13,02,15,11.10
2014,10,13,02,16,11.10
2014,10,13,02,17,11.10
2014,10,13,02,18,11.10
2014,10,13,02,19,11.10
2014,10,13,02,20,11.10
2014,10,13,02,21,11.10
2014,10,13,02,22,11.10
2014,10,13,02,23,11.10
2014,10,13,02,24,11.10
2014,10,13,02,25,11.10
2014,10,13,02,26,11.10
2014,10,13,02,27,11.10
2014,10,13,02,28,11.10
2014,10,13,02,29,11.00
2014,10,13,02,30,11.00
2014,10,13,02,31,11.00
2014,10,13,02,32,11.10
2014,10,13,02,33,11.10
2014,10,13,02,34,11.10
2014,10,13,02,35,11.10
2014,10,13,02,36,11.10
2014,10,13,02,37,11.20
2014,10,13,02,38,11.20
2014,10,13,02,39,11.20
2014,10,13,02,40,11.20
2014,10,13,02,41,11.20
2014,10,13,02,42,11.20
2014,10,13,02,43,11.20
2014,10,13,02,44,11.20
2014,10,13,02,45,11.20
2014,10,13,02,46,11.20
2014,10,13,02,47,11.20
2014,10,13,02,48,11.30
2014,10,13,02,49,11.30
2014,10,13,02,50,11.30
2014,10,13,02,51,11.30
2014,10,13,02,52,11.30
2014,10,13,02,53,11.30
2014,10,13,02,54,11.30
2014,10,13,02,55,11.30
2014,10,13,02,56,11.30
2014,10,13,02,57,11.30
2014,10,13,02,58,11.30
2014,10,13,02,59,11.30
2014,10,13,03,00,11.20
2014,10,13,03,01,11.20
2014,10,13,03,02,11.20
2014,10,13,03,03,11.20
2014,10,13,03,04,11.20
2014,10,13,03,05,11.20
2014,10,13,03,06,11.20
2014,10,13,03,07,11.20
2014,10,13,03,08,11.10
2014,10,13,03,09,11.10
2014,10,13,03,10,11.10
2014,10,13,03,11,11.10
2014,10,13,03,12,11.10
2014,10,13,03,13,11.10
2014,10,13,03,14,11.10
2014,10,13,03,15,11.10
2014,10,13,03,16,11.10
2014,10,13,03,17,11.10
2014,10,13,03,18,11.10
2014,10,13,03,19,11.10
2014,10,13,03,20,11.10
2014,10,13,03,21,11.20
2014,10,13,03,22,11.20
2014,10,13,03,23,11.20
2014,10,13,03,24,11.20
2014,10,13,03,25,11.20
2014,10,13,03,26,11.20
2014,10,13,03,27,11.20
2014,10,13,03,28,11.20
2014,10,13,03,29,11.30
2014,10,13,03,30,11.30
2014,10,13,03,31,11.30
2014,10,13,03,32,11.30
2014,10,13,03,33,11.30
2014,10,13,03,34,11.30
2014,10,13,03,35,11.30
2014,10,13,03,36,11.30
2014,10,13,03,37,11.30
2014,10,13,03,38,11.30
2014,10,13,03,39,11.30
2014,10,13,03,40,11.30
2014,10,13,03,41,11.30
2014,10,13,03,42,11.30
2014,10,13,03,43,11.30
2014,10,13,03,44,11.30
2014,10,13,03,45,11.30
2014,10,13,03,46,11.30
2014,10,13,03,47,11.30
2014,10,13,03,48,11.30
2014,10,13,03,49,11.30
2014,10,13,03,50,11.30
2014,10,13,03,51,11.30
2014,10,13,03,52,11.30
2014,10,13,03,53,11.30
2014,10,13,03,54,11.30
2014,10,13,03,55,11.30
2014,10,13,03,56,11.30
2014,10,13,03,57,11.30
2014,10,13,03,58,11.30
2014,10,13,03,59,11.30
2014,10,13,04,00,11.30
2014,10,13,04,01,11.30
2014,10,13,04,02,11.30
2014,10,13,04,03,11.30
2014,10,13,04,04,11.30
2014,10,13,04,05,11.30
2014,10,13,04,06,11.30
2014,10,13,04,07,11.30
2014,10,13,04,08,11.30
2014,10,13,04,09,11.30
2014,10,13,04,10,11.30
2014,10,13,04,11,11.30
2014,10,13,04,12,11.30
2014,10,13,04,13,11.30
2014,10,13,04,14,11.30
2014,10,13,04,15,11.30
2014,10,13,04,16,11.30
2014,10,13,04,17,11.20
2014,10,13,04,18,11.30
2014,10,13,04,19,11.20
2014,10,13,04,20,11.20
2014,10,13,04,21,11.20
2014,10,13,04,22,11.20
2014,10,13,04,23,11.20
2014,10,13,04,24,11.20
2014,10,13,04,25,11.20
2014,10,13,04,26,11.20
2014,10,13,04,27,11.20
2014,10,13,04,28,11.20
2014,10,13,04,29,11.20
2014,10,13,04,30,11.20
2014,10,13,04,31,11.20
2014,10,13,04,32,11.20
2014,10,13,04,33,11.20
2014,10,13,04,34,11.10
2014,10,13,04,35,11.10
2014,10,13,04,36,11.10
2014,10,13,04,37,11.10
2014,10,13,04,38,11.10
2014,10,13,04,39,11.10
2014,10,13,04,40,11.10
2014,10,13,04,41,11.10
2014,10,13,04,42,11.10
2014,10,13,04,43,11.10
2014,10,13,04,44,11.10
2014,10,13,04,45,11.10
2014,10,13,04,46,11.10
2014,10,13,04,47,11.10
2014,10,13,04,48,11.10
2014,10,13,04,49,11.10
2014,10,13,04,50,11.10
2014,10,13,04,51,11.10
2014,10,13,04,52,11.10
2014,10,13,04,53,11.10
2014,10,13,04,54,11.10
2014,10,13,04,55,11.10
2014,10,13,04,56,11.10
2014,10,13,04,57,11.10
2014,10,13,04,58,11.10
2014,10,13,04,59,11.10
2014,10,13,05,00,11.10
2014,10,13,05,01,11.10
2014,10,13,05,02,11.00
2014,10,13,05,03,11.00
2014,10,13,05,04,11.00
2014,10,13,05,05,11.00
2014,10,13,05,06,11.00
2014,10,13,05,07,11.00
2014,10,13,05,08,11.00
2014,10,13,05,09,11.00
2014,10,13,05,10,10.90
2014,10,13,05,11,10.90
2014,10,13,05,12,10.90
2014,10,13,05,13,10.90
2014,10,13,05,14,10.90
2014,10,13,05,15,10.90
2014,10,13,05,16,10.90
2014,10,13,05,17,10.90
2014,10,13,05,18,10.90
2014,10,13,05,19,10.90
2014,10,13,05,20,10.90
2014,10,13,05,21,11.00
2014,10,13,05,22,10.90
2014,10,13,05,23,11.00
2014,10,13,05,24,10.90
2014,10,13,05,25,10.90
2014,10,13,05,26,11.00
2014,10,13,05,27,11.00
2014,10,13,05,28,11.00
2014,10,13,05,29,11.00
2014,10,13,05,30,11.00
2014,10,13,05,31,10.90
2014,10,13,05,32,10.90
2014,10,13,05,33,10.90
2014,10,13,05,34,10.90
2014,10,13,05,35,10.90
2014,10,13,05,36,10.90
2014,10,13,05,37,10.90
2014,10,13,05,38,10.90
2014,10,13,05,39,10.90
2014,10,13,05,40,10.90
2014,10,13,05,41,10.90
2014,10,13,05,42,10.90
2014,10,13,05,43,10.90
2014,10,13,05,44,10.90
2014,10,13,05,45,10.90
2014,10,13,05,46,10.90
2014,10,13,05,47,10.90
2014,10,13,05,48,10.90
2014,10,13,05,49,10.90
2014,10,13,05,50,10.90
2014,10,13,05,51,10.90
2014,10,13,05,52,10.90
2014,10,13,05,53,10.90
2014,10,13,05,54,10.90
2014,10,13,05,55,10.80
2014,10,13,05,56,10.80
2014,10,13,05,57,10.80
2014,10,13,05,58,10.80
2014,10,13,05,59,10.80
2014,10,13,06,00,10.80
2014,10,13,06,01,10.80
2014,10,13,06,02,10.80
2014,10,13,06,03,10.80
2014,10,13,06,04,10.80
2014,10,13,06,05,10.80
2014,10,13,06,06,10.80
2014,10,13,06,07,10.80
2014,10,13,06,08,10.80
2014,10,13,06,09,10.80
2014,10,13,06,10,10.80
2014,10,13,06,11,10.80
2014,10,13,06,12,10.80
2014,10,13,06,13,10.80
2014,10,13,06,14,10.80
2014,10,13,06,15,10.80
2014,10,13,06,16,10.80
2014,10,13,06,17,10.80
2014,10,13,06,18,10.80
2014,10,13,06,19,10.80
2014,10,13,06,20,10.80
2014,10,13,06,21,10.80
2014,10,13,06,22,10.80
2014,10,13,06,23,10.80
2014,10,13,06,24,10.80
2014,10,13,06,25,10.80
2014,10,13,06,26,10.80
2014,10,13,06,27,10.80
2014,10,13,06,28,10.80
2014,10,13,06,29,10.80
2014,10,13,06,30,10.80
2014,10,13,06,31,10.80
2014,10,13,06,32,10.80
2014,10,13,06,33,10.80
2014,10,13,06,34,10.90
2014,10,13,06,35,10.90
2014,10,13,06,36,10.90
2014,10,13,06,37,10.90
2014,10,13,06,38,10.90
2014,10,13,06,39,10.90
2014,10,13,06,40,10.90
2014,10,13,06,41,10.90
2014,10,13,06,42,10.90
2014,10,13,06,43,10.90
2014,10,13,06,44,10.90
2014,10,13,06,45,10.90
2014,10,13,06,46,10.90
2014,10,13,06,47,10.90
2014,10,13,06,48,10.90
2014,10,13,06,49,10.90
2014,10,13,06,50,10.80
2014,10,13,06,51,10.90
2014,10,13,06,52,10.80
2014,10,13,06,53,10.80
2014,10,13,06,54,10.80
2014,10,13,06,55,10.80
2014,10,13,06,56,10.80
2014,10,13,06,57,10.80
2014,10,13,06,58,10.80
2014,10,13,06,59,10.80
2014,10,13,07,00,10.80
2014,10,13,07,01,10.80
2014,10,13,07,02,10.90
2014,10,13,07,03,10.80
2014,10,13,07,04,10.80
2014,10,13,07,05,10.80
2014,10,13,07,06,10.90
2014,10,13,07,07,10.80
2014,10,13,07,08,10.80
2014,10,13,07,09,10.80
2014,10,13,07,10,10.80
2014,10,13,07,11,10.80
2014,10,13,07,12,10.80
2014,10,13,07,13,10.90
2014,10,13,07,14,10.90
2014,10,13,07,15,10.90
2014,10,13,07,16,10.80
2014,10,13,07,17,10.90
2014,10,13,07,18,10.90
2014,10,13,07,19,10.90
2014,10,13,07,20,10.90
2014,10,13,07,21,10.90
2014,10,13,07,22,10.80
2014,10,13,07,23,10.80
2014,10,13,07,24,10.80
2014,10,13,07,25,10.80
2014,10,13,07,26,10.80
2014,10,13,07,27,10.80
2014,10,13,07,28,10.80
2014,10,13,07,29,10.80
2014,10,13,07,30,10.80
2014,10,13,07,31,10.80
2014,10,13,07,32,10.80
2014,10,13,07,33,10.80
2014,10,13,07,34,10.80
2014,10,13,07,35,10.80
2014,10,13,07,36,10.80
2014,10,13,07,37,10.80
2014,10,13,07,38,10.80
2014,10,13,07,39,10.80
2014,10,13,07,40,10.80
2014,10,13,07,41,10.80
2014,10,13,07,42,10.80
2014,10,13,07,43,10.80
2014,10,13,07,44,10.80
2014,10,13,07,45,10.80
2014,10,13,07,46,10.80
2014,10,13,07,47,10.80
2014,10,13,07,48,10.80
2014,10,13,07,49,10.80
2014,10,13,07,50,10.80
2014,10,13,07,51,10.80
2014,10,13,07,52,10.80
2014,10,13,07,53,10.80
2014,10,13,07,54,10.80
2014,10,13,07,55,10.80
2014,10,13,07,56,10.80
2014,10,13,07,57,10.80
2014,10,13,07,58,10.80
2014,10,13,07,59,10.80
2014,10,13,08,00,10.80
2014,10,13,08,01,10.80
2014,10,13,08,02,10.80
2014,10,13,08,03,10.80
2014,10,13,08,04,10.80
2014,10,13,08,05,10.80
2014,10,13,08,06,10.80
2014,10,13,08,07,10.80
2014,10,13,08,08,10.80
2014,10,13,08,09,10.80
2014,10,13,08,10,10.80
2014,10,13,08,11,10.80
2014,10,13,08,12,10.80
2014,10,13,08,13,10.80
2014,10,13,08,14,10.80
2014,10,13,08,15,10.80
2014,10,13,08,16,10.80
2014,10,13,08,17,10.80
2014,10,13,08,18,10.80
2014,10,13,08,19,10.80
2014,10,13,08,20,10.90
2014,10,13,08,21,10.90
2014,10,13,08,22,10.90
2014,10,13,08,23,10.90
2014,10,13,08,24,10.90
2014,10,13,08,25,10.90
2014,10,13,08,26,10.90
2014,10,13,08,27,10.90
2014,10,13,08,28,11.00
2014,10,13,08,29,11.00
2014,10,13,08,30,11.00
2014,10,13,08,31,11.00
2014,10,13,08,32,11.00
2014,10,13,08,33,11.00
2014,10,13,08,34,11.00
2014,10,13,08,35,11.10
2014,10,13,08,36,11.10
2014,10,13,08,37,11.10
2014,10,13,08,38,11.10
2014,10,13,08,39,11.10
2014,10,13,08,40,11.20
2014,10,13,08,41,11.20
2014,10,13,08,42,11.20
2014,10,13,08,43,11.20
2014,10,13,08,44,11.20
2014,10,13,08,45,11.20
2014,10,13,08,46,11.20
2014,10,13,08,47,11.20
2014,10,13,08,48,11.20
2014,10,13,08,49,11.20
2014,10,13,08,50,11.30
2014,10,13,08,51,11.30
2014,10,13,08,52,11.30
2014,10,13,08,53,11.30
2014,10,13,08,54,11.30
2014,10,13,08,55,11.30
2014,10,13,08,56,11.30
2014,10,13,08,57,11.30
2014,10,13,08,58,11.30
2014,10,13,08,59,11.30
2014,10,13,09,00,11.30
2014,10,13,09,01,11.30
2014,10,13,09,02,11.30
2014,10,13,09,03,11.30
2014,10,13,09,04,11.30
2014,10,13,09,05,11.30
2014,10,13,09,06,11.30
2014,10,13,09,07,11.30
2014,10,13,09,08,11.30
2014,10,13,09,09,11.30
2014,10,13,09,10,11.30
2014,10,13,09,11,11.30
2014,10,13,09,12,11.30
2014,10,13,09,13,11.40
2014,10,13,09,14,11.40
2014,10,13,09,15,11.40
2014,10,13,09,16,11.40
2014,10,13,09,17,11.40
2014,10,13,09,18,11.40
2014,10,13,09,19,11.40
2014,10,13,09,20,11.40
2014,10,13,09,21,11.40
2014,10,13,09,22,11.40
2014,10,13,09,23,11.50
2014,10,13,09,24,11.50
2014,10,13,09,25,11.50
2014,10,13,09,26,11.50
2014,10,13,09,27,11.60
2014,10,13,09,28,11.60
2014,10,13,09,29,11.60
2014,10,13,09,30,11.60
2014,10,13,09,31,11.60
2014,10,13,09,32,11.60
2014,10,13,09,33,11.60
2014,10,13,09,34,11.70
2014,10,13,09,35,11.70
2014,10,13,09,36,11.70
2014,10,13,09,37,11.70
2014,10,13,09,38,11.70
2014,10,13,09,39,11.70
2014,10,13,09,40,11.70
2014,10,13,09,41,11.70
2014,10,13,09,42,11.70
2014,10,13,09,43,11.70
2014,10,13,09,44,11.70
2014,10,13,09,45,11.70
2014,10,13,09,46,11.80
2014,10,13,09,47,11.80
2014,10,13,09,48,11.80
2014,10,13,09,49,11.80
2014,10,13,09,50,11.90
2014,10,13,09,51,11.90
2014,10,13,09,52,11.90
2014,10,13,09,53,11.90
2014,10,13,09,54,12.00
2014,10,13,09,55,12.00
2014,10,13,09,56,12.10
2014,10,13,09,57,12.10
2014,10,13,09,58,12.10
2014,10,13,09,59,12.10
2014,10,13,10,00,12.20
2014,10,13,10,01,12.20
2014,10,13,10,02,12.20
2014,10,13,10,03,12.20
2014,10,13,10,04,12.20
2014,10,13,10,05,12.30
2014,10,13,10,06,12.30
2014,10,13,10,07,12.30
2014,10,13,10,08,12.30
2014,10,13,10,09,12.30
2014,10,13,10,10,12.30
2014,10,13,10,11,12.30
2014,10,13,10,12,12.30
2014,10,13,10,13,12.30
2014,10,13,10,14,12.30
2014,10,13,10,15,12.30
2014,10,13,10,16,12.30
2014,10,13,10,17,12.30
2014,10,13,10,18,12.30
2014,10,13,10,19,12.30
2014,10,13,10,20,12.30
2014,10,13,10,21,12.30
2014,10,13,10,22,12.30
2014,10,13,10,23,12.30
2014,10,13,10,24,12.40
2014,10,13,10,25,12.40
2014,10,13,10,26,12.40
2014,10,13,10,27,12.40
2014,10,13,10,28,12.40
2014,10,13,10,29,12.50
2014,10,13,10,30,12.50
2014,10,13,10,31,12.50
2014,10,13,10,32,12.50
2014,10,13,10,33,12.50
2014,10,13,10,34,12.40
2014,10,13,10,35,12.40
2014,10,13,10,36,12.40
2014,10,13,10,37,12.40
2014,10,13,10,38,12.40
2014,10,13,10,39,12.40
2014,10,13,10,40,12.40
2014,10,13,10,41,12.40
2014,10,13,10,42,12.40
2014,10,13,10,43,12.50
2014,10,13,10,44,12.50
2014,10,13,10,45,12.50
2014,10,13,10,46,12.60
2014,10,13,10,47,12.60
2014,10,13,10,48,12.60
2014,10,13,10,49,12.60
2014,10,13,10,50,12.60
2014,10,13,10,51,12.60
2014,10,13,10,52,12.70
2014,10,13,10,53,12.70
2014,10,13,10,54,12.70
2014,10,13,10,55,12.80
2014,10,13,10,56,12.80
2014,10,13,10,57,12.80
2014,10,13,10,58,12.90
2014,10,13,10,59,12.90
2014,10,13,11,00,12.90
2014,10,13,11,01,12.90
2014,10,13,11,02,12.90
2014,10,13,11,03,12.90
2014,10,13,11,04,12.90
2014,10,13,11,05,12.90
2014,10,13,11,06,12.90
2014,10,13,11,07,13.00
2014,10,13,11,08,13.00
2014,10,13,11,09,13.00
2014,10,13,11,10,13.00
2014,10,13,11,11,13.00
2014,10,13,11,12,13.00
2014,10,13,11,13,13.00
2014,10,13,11,14,13.10
2014,10,13,11,15,13.10
2014,10,13,11,16,13.10
2014,10,13,11,17,13.10
2014,10,13,11,18,13.10
2014,10,13,11,19,13.10
2014,10,13,11,20,13.10
2014,10,13,11,21,13.10
2014,10,13,11,22,13.10
2014,10,13,11,23,13.10
2014,10,13,11,24,13.10
2014,10,13,11,25,13.10
2014,10,13,11,26,13.10
2014,10,13,11,27,13.10
2014,10,13,11,28,13.10
2014,10,13,11,29,13.10
2014,10,13,11,30,13.10
2014,10,13,11,31,13.10
2014,10,13,11,32,13.10
2014,10,13,11,33,13.20
2014,10,13,11,34,13.20
2014,10,13,11,35,13.20
2014,10,13,11,36,13.20
2014,10,13,11,37,13.20
2014,10,13,11,38,13.20
2014,10,13,11,39,13.20
2014,10,13,11,40,13.30
2014,10,13,11,41,13.30
2014,10,13,11,42,13.30
2014,10,13,11,43,13.40
2014,10,13,11,44,13.40
2014,10,13,11,45,13.40
2014,10,13,11,46,13.50
2014,10,13,11,47,13.50
2014,10,13,11,48,13.50
2014,10,13,11,49,13.50
2014,10,13,11,50,13.50
2014,10,13,11,51,13.50
2014,10,13,11,52,13.50
2014,10,13,11,53,13.50
2014,10,13,11,54,13.60
2014,10,13,11,55,13.60
2014,10,13,11,56,13.60
2014,10,13,11,57,13.60
2014,10,13,11,58,13.70
2014,10,13,11,59,13.70
2014,10,13,12,00,13.70
2014,10,13,12,01,13.70
2014,10,13,12,02,13.70
2014,10,13,12,03,13.70
2014,10,13,12,04,13.70
2014,10,13,12,05,13.70
2014,10,13,12,06,13.80
2014,10,13,12,07,13.80
2014,10,13,12,08,13.80
2014,10,13,12,09,13.80
2014,10,13,12,10,13.80
2014,10,13,12,11,13.80
2014,10,13,12,12,13.80
2014,10,13,12,13,13.80
2014,10,13,12,14,13.80
2014,10,13,12,15,13.90
2014,10,13,12,16,13.90
2014,10,13,12,17,13.90
2014,10,13,12,18,13.90
2014,10,13,12,19,13.90
2014,10,13,12,20,14.00
2014,10,13,12,21,14.00
2014,10,13,12,22,14.00
2014,10,13,12,23,14.10
2014,10,13,12,24,14.10
2014,10,13,12,25,14.10
2014,10,13,12,26,14.10
2014,10,13,12,27,14.10
2014,10,13,12,28,14.10
2014,10,13,12,29,14.10
2014,10,13,12,30,14.10
2014,10,13,12,31,14.10
2014,10,13,12,32,14.10
2014,10,13,12,33,14.10
2014,10,13,12,34,14.10
2014,10,13,12,35,14.10
2014,10,13,12,36,14.10
2014,10,13,12,37,14.10
2014,10,13,12,38,14.20
2014,10,13,12,39,14.20
2014,10,13,12,40,14.20
2014,10,13,12,41,14.20
2014,10,13,12,42,14.20
2014,10,13,12,43,14.20
2014,10,13,12,44,14.20
2014,10,13,12,45,14.20
2014,10,13,12,46,14.20
2014,10,13,12,47,14.20
2014,10,13,12,48,14.20
2014,10,13,12,49,14.20
2014,10,13,12,50,14.20
2014,10,13,12,51,14.20
2014,10,13,12,52,14.20
2014,10,13,12,53,14.30
2014,10,13,12,54,14.30
2014,10,13,12,55,14.30
2014,10,13,12,56,14.30
2014,10,13,12,57,14.30
2014,10,13,12,58,14.30
2014,10,13,12,59,14.40
2014,10,13,13,00,14.40
2014,10,13,13,01,14.40
2014,10,13,13,02,14.40
2014,10,13,13,03,14.40
2014,10,13,13,04,14.50
2014,10,13,13,05,14.50
2014,10,13,13,06,14.50
2014,10,13,13,07,14.60
2014,10,13,13,08,14.60
2014,10,13,13,09,14.60
2014,10,13,13,10,14.70
2014,10,13,13,11,14.70
2014,10,13,13,12,14.70
2014,10,13,13,13,14.70
2014,10,13,13,14,14.80
2014,10,13,13,15,14.80
2014,10,13,13,16,14.80
2014,10,13,13,17,14.80
2014,10,13,13,18,14.90
2014,10,13,13,19,14.90
2014,10,13,13,20,14.90
2014,10,13,13,21,14.90
2014,10,13,13,22,14.90
2014,10,13,13,23,15.00
2014,10,13,13,24,15.00
2014,10,13,13,25,15.00
2014,10,13,13,26,15.00
2014,10,13,13,27,15.00
2014,10,13,13,28,15.10
2014,10,13,13,29,15.10
2014,10,13,13,30,15.10
2014,10,13,13,31,15.00
2014,10,13,13,32,15.00
2014,10,13,13,33,15.00
2014,10,13,13,34,15.00
2014,10,13,13,35,15.00
2014,10,13,13,36,15.00
2014,10,13,13,37,15.00
2014,10,13,13,38,15.00
2014,10,13,13,39,15.00
2014,10,13,13,40,15.00
2014,10,13,13,41,15.00
2014,10,13,13,42,15.00
2014,10,13,13,43,15.00
2014,10,13,13,44,14.90
2014,10,13,13,45,14.90
2014,10,13,13,46,14.90
2014,10,13,13,47,14.90
2014,10,13,13,48,14.90
2014,10,13,13,49,14.90
2014,10,13,13,50,14.90
2014,10,13,13,51,14.90
2014,10,13,13,52,14.90
2014,10,13,13,53,14.90
2014,10,13,13,54,14.90
2014,10,13,13,55,14.90
2014,10,13,13,56,14.90
2014,10,13,13,57,14.90
2014,10,13,13,58,14.90
2014,10,13,13,59,14.90
2014,10,13,14,00,14.80
2014,10,13,14,01,14.80
2014,10,13,14,02,14.80
2014,10,13,14,03,14.80
2014,10,13,14,04,14.80
2014,10,13,14,05,14.80
2014,10,13,14,06,14.80
2014,10,13,14,07,14.80
2014,10,13,14,08,14.80
2014,10,13,14,09,14.80
2014,10,13,14,10,14.80
2014,10,13,14,11,14.70
2014,10,13,14,12,14.70
2014,10,13,14,13,14.60
2014,10,13,14,14,14.50
2014,10,13,14,15,14.50
2014,10,13,14,16,14.40
2014,10,13,14,17,14.30
2014,10,13,14,18,14.30
2014,10,13,14,19,14.20
2014,10,13,14,20,14.10
2014,10,13,14,21,14.10
2014,10,13,14,22,14.00
2014,10,13,14,23,13.90
2014,10,13,14,24,13.90
2014,10,13,14,25,13.80
2014,10,13,14,26,13.80
2014,10,13,14,27,13.70
2014,10,13,14,28,13.70
2014,10,13,14,29,13.70
2014,10,13,14,30,13.60
2014,10,13,14,31,13.60
2014,10,13,14,32,13.60
2014,10,13,14,33,13.60
2014,10,13,14,34,13.50
2014,10,13,14,35,13.50
2014,10,13,14,36,13.50
2014,10,13,14,37,13.40
2014,10,13,14,38,13.40
2014,10,13,14,39,13.40
2014,10,13,14,40,13.40
2014,10,13,14,41,13.40
2014,10,13,14,42,13.40
2014,10,13,14,43,13.40
2014,10,13,14,44,13.40
2014,10,13,14,45,13.40
2014,10,13,14,46,13.30
2014,10,13,14,47,13.30
2014,10,13,14,48,13.30
2014,10,13,14,49,13.30
2014,10,13,14,50,13.30
2014,10,13,14,51,13.30
2014,10,13,14,52,13.30
2014,10,13,14,53,13.30
2014,10,13,14,54,13.30
2014,10,13,14,55,13.30
2014,10,13,14,56,13.30
2014,10,13,14,57,13.30
2014,10,13,14,58,13.30
2014,10,13,14,59,13.30
2014,10,13,15,00,13.30
2014,10,13,15,01,13.20
2014,10,13,15,02,13.20
2014,10,13,15,03,13.20
2014,10,13,15,04,13.10
2014,10,13,15,05,13.10
2014,10,13,15,06,13.10
2014,10,13,15,07,13.00
2014,10,13,15,08,13.00
2014,10,13,15,09,12.90
2014,10,13,15,10,12.90
2014,10,13,15,11,12.90
2014,10,13,15,12,12.90
2014,10,13,15,13,12.90
2014,10,13,15,14,12.90
2014,10,13,15,15,12.90
2014,10,13,15,16,12.90
2014,10,13,15,17,13.00
2014,10,13,15,18,13.00
2014,10,13,15,19,13.00
2014,10,13,15,20,12.90
2014,10,13,15,21,12.90
2014,10,13,15,22,12.90
2014,10,13,15,23,12.90
2014,10,13,15,24,12.90
2014,10,13,15,25,12.90
2014,10,13,15,26,12.90
2014,10,13,15,27,12.90
2014,10,13,15,28,12.90
2014,10,13,15,29,12.90
2014,10,13,15,30,12.90
2014,10,13,15,31,12.90
2014,10,13,15,32,12.90
2014,10,13,15,33,12.90
2014,10,13,15,34,12.90
2014,10,13,15,35,12.90
2014,10,13,15,36,12.90
2014,10,13,15,37,13.00
2014,10,13,15,38,13.00
2014,10,13,15,39,13.00
2014,10,13,15,40,13.00
2014,10,13,15,41,13.00
2014,10,13,15,42,13.00
2014,10,13,15,43,13.00
2014,10,13,15,44,13.00
2014,10,13,15,45,13.00
2014,10,13,15,46,13.00
2014,10,13,15,47,12.90
2014,10,13,15,48,12.90
2014,10,13,15,49,12.90
2014,10,13,15,50,12.80
2014,10,13,15,51,12.80
2014,10,13,15,52,12.80
2014,10,13,15,53,12.70
2014,10,13,15,54,12.70
2014,10,13,15,55,12.70
2014,10,13,15,56,12.70
2014,10,13,15,57,12.70
2014,10,13,15,58,12.70
2014,10,13,15,59,12.70
2014,10,13,16,00,12.70
2014,10,13,16,01,12.70
2014,10,13,16,02,12.70
2014,10,13,16,03,12.70
2014,10,13,16,04,12.80
2014,10,13,16,05,12.80
2014,10,13,16,06,12.80
2014,10,13,16,07,12.80
2014,10,13,16,08,12.70
2014,10,13,16,09,12.70
2014,10,13,16,10,12.70
2014,10,13,16,11,12.70
2014,10,13,16,12,12.70
2014,10,13,16,13,12.70
2014,10,13,16,14,12.70
2014,10,13,16,15,12.70
2014,10,13,16,16,12.70
2014,10,13,16,17,12.70
2014,10,13,16,18,12.70
2014,10,13,16,19,12.70
2014,10,13,16,20,12.70
2014,10,13,16,21,12.70
2014,10,13,16,22,12.70
2014,10,13,16,23,12.70
2014,10,13,16,24,12.70
2014,10,13,16,25,12.80
2014,10,13,16,26,12.80
2014,10,13,16,27,12.80
2014,10,13,16,28,12.80
2014,10,13,16,29,12.80
2014,10,13,16,30,12.80
2014,10,13,16,31,12.80
2014,10,13,16,32,12.80
2014,10,13,16,33,12.80
2014,10,13,16,34,12.80
2014,10,13,16,35,12.80
2014,10,13,16,36,12.80
2014,10,13,16,37,12.80
2014,10,13,16,38,12.80
2014,10,13,16,39,12.80
2014,10,13,16,40,12.80
2014,10,13,16,41,12.80
2014,10,13,16,42,12.80
2014,10,13,16,43,12.80
2014,10,13,16,44,12.80
2014,10,13,16,45,12.80
2014,10,13,16,46,12.80
2014,10,13,16,47,12.80
2014,10,13,16,48,12.80
2014,10,13,16,49,12.80
2014,10,13,16,50,12.90
2014,10,13,16,51,12.90
2014,10,13,16,52,12.90
2014,10,13,16,53,13.00
2014,10,13,16,54,13.00
2014,10,13,16,55,13.10
2014,10,13,16,56,13.10
2014,10,13,16,57,13.10
2014,10,13,16,58,13.10
2014,10,13,16,59,13.10
2014,10,13,17,00,13.10
2014,10,13,17,01,13.10
2014,10,13,17,02,13.10
2014,10,13,17,03,13.10
2014,10,13,17,04,13.10
2014,10,13,17,05,13.10
2014,10,13,17,06,13.10
2014,10,13,17,07,13.00
2014,10,13,17,08,13.00
2014,10,13,17,09,13.00
2014,10,13,17,10,13.00
2014,10,13,17,11,12.90
2014,10,13,17,12,12.90
2014,10,13,17,13,12.90
2014,10,13,17,14,12.90
2014,10,13,17,15,12.90
2014,10,13,17,16,12.90
2014,10,13,17,17,12.90
2014,10,13,17,18,12.90
2014,10,13,17,19,12.90